DW7658 Weather Reports


Display with metric or nautical units.
time (UTC)temp
F
wind
direction
speed
MPH
gust
MPH
rain 1hr
in
rain 24hr
in
rain mn
in
humidity
%
barometer
mb
20260906161604 80 329 1.0 5.0 0.00 0.32 0.09 57 1010.1
20260906160100 80 287 2.0 8.0 0.00 0.32 0.09 58 1010.3
20260906154539 79 44 1.0 5.0 0.00 0.32 0.09 64 1010.2
20260906153044 78 346 1.0 6.0 0.00 0.32 0.09 68 1010.1
20260906151520 77 84 2.0 6.0 0.00 0.32 0.09 66 1010.0
20260906150040 79 20 0.0 2.0 0.00 0.32 0.09 66 1009.9
20260906144616 77 284 0.0 7.0 0.00 0.32 0.09 69 1010.1
20260906143055 75 287 1.0 5.0 0.00 0.32 0.09 70 1010.1
20260906141542 75 70 1.0 5.0 0.00 0.32 0.09 71 1010.0
20260906140034 74 349 1.0 4.0 0.00 0.32 0.09 72 1009.9
20260906134513 72 115 2.0 7.0 0.00 0.32 0.09 75 1009.9
20260906133011 72 248 1.0 8.0 0.00 0.32 0.09 77 1009.6
20260906131552 70 253 1.0 5.0 0.00 0.32 0.09 79 1009.6
20260906130053 69 267 0.0 3.0 0.00 0.32 0.09 83 1009.6
20260906124531 68 86 0.0 5.0 0.00 0.32 0.09 86 1009.3
20260906123027 66 30 0.0 4.0 0.00 0.32 0.09 87 1009.2
20260906121511 64 27 0.0 2.0 0.00 0.32 0.09 87 1008.9
20260906120006 64 132 0.0 1.0 0.00 0.32 0.09 87 1008.7
20260906114549 0 0.0 0.0 0.00 0.32 0.09 1008.5
20260906113041 0 0.0 0.0 0.00 0.32 0.09 1008.3
20260906111520 0 0.0 0.0 0.00 0.32 0.09 1008.3
20260906110020 0 0.0 0.0 0.00 0.32 0.09 1008.0
20260906104613 0 0.0 0.0 0.00 0.32 0.09 1007.9
20260906103049 0 0.0 0.0 0.00 0.32 0.09 1007.8
20260906101527 0 0.0 0.0 0.00 0.32 0.09 1007.7
20260906100024 0 0.0 0.0 0.00 0.32 0.09 1007.7
20260906094508 0 0.0 0.0 0.00 0.32 0.09 1007.5
20260906093107 0 0.0 0.0 0.00 0.32 0.09 1007.3
20260906091542 0 0.0 0.0 0.00 0.32 0.09 1007.3
20260906090032 0 0.0 0.0 0.00 0.32 0.09 1007.2
20260906084513 0 0.0 0.0 0.00 0.32 0.09 1007.1
20260906083006 0 0.0 0.0 0.00 0.32 0.09 1006.9
20260906081553 69 139 0.0 3.0 0.01 0.32 0.09 87 1007.0
20260906080051 69 142 0.0 1.0 0.01 0.32 0.09 88 1006.8
20260906074531 69 148 0.0 1.0 0.01 0.32 0.09 88 1006.8
20260906073027 69 138 0.0 1.0 0.01 0.32 0.09 88 1006.8
20260906071510 68 63 0.0 0.0 0.00 0.31 0.08 88 1006.9
20260906070009 68 68 0.0 0.0 0.00 0.31 0.08 88 1007.0
20260906064559 68 68 0.0 0.0 0.00 0.31 0.08 88 1007.0
20260906063058 68 68 0.0 0.0 0.00 0.31 0.08 88 1007.1
20260906061557 68 39 0.0 0.0 0.00 0.31 0.08 88 1007.3
20260906060057 67 39 0.0 0.0 0.00 0.31 0.08 88 1007.2
20260906054556 68 38 0.0 0.0 0.00 0.31 0.08 88 1007.2
20260906053055 68 39 0.0 0.0 0.00 0.31 0.08 88 1007.2
20260906051555 68 39 0.0 0.0 0.00 0.31 0.08 88 1007.2
20260906050112 68 39 0.0 0.0 0.00 0.31 0.08 88 1007.1
20260906044535 68 38 0.0 0.0 0.00 0.31 0.08 88 1006.8
20260906043033 68 39 0.0 0.0 0.00 0.31 0.08 87 1006.6
20260906041513 68 38 0.0 0.0 0.00 0.31 0.08 87 1006.5
20260906040011 68 38 0.0 0.0 0.00 0.31 0.08 87 1006.5
20260906034603 69 39 0.0 0.0 0.00 0.31 0.08 87 1006.4
20260906033052 69 38 0.0 0.0 0.00 0.31 0.08 87 1006.5
20260906031545 69 39 0.0 0.0 0.00 0.31 0.08 87 1006.4
20260906030033 69 39 0.0 0.0 0.00 0.31 0.08 87 1006.5
20260906024513 70 39 0.0 0.0 0.00 0.31 0.08 87 1006.6
20260906023017 70 39 0.0 0.0 0.00 0.31 0.08 87 1006.6
20260906021603 71 39 0.0 0.0 0.00 0.31 0.08 87 1006.7
20260906020057 71 39 0.0 0.0 0.00 0.31 0.08 87 1006.6
20260906014535 71 37 0.0 0.0 0.26 0.31 0.08 87 1006.5
20260906013031 71 35 0.0 0.0 0.31 0.31 0.08 88 1006.7
20260906011514 72 90 0.0 1.0 0.31 0.31 0.08 88 1006.2
20260906010008 73 76 1.0 7.0 0.31 0.31 0.08 87 1006.4
20260906004550 75 61 1.0 3.0 0.05 0.05 0.05 86 1006.5
20260906003047 75 314 0.0 6.0 0.00 0.00 0.00 86 1006.1
20260906001532 75 101 0.0 0.0 0.00 0.00 0.00 86 1005.7
20260906000028 76 101 0.0 0.0 0.00 0.00 0.00 86 1005.9
20260905234510 77 101 0.0 0.0 0.00 0.00 0.00 85 1005.5
20260905233011 77 101 0.0 1.0 0.00 0.00 0.00 84 1005.6
20260905231609 78 103 0.0 2.0 0.00 0.00 0.00 84 1005.5
20260905230054 80 136 0.0 3.0 0.00 0.00 0.00 83 1005.7
20260905224558 82 43 0.0 1.0 0.00 0.00 0.00 80 1005.8
20260905223037 82 255 0.0 1.0 0.00 0.00 0.00 80 1005.9
20260905221542 83 85 0.0 1.0 0.00 0.00 0.00 79 1005.5
20260905220013 84 81 0.0 1.0 0.00 0.00 0.00 76 1005.4
20260905214514 84 111 0.0 2.0 0.00 0.00 0.00 75 1005.4
20260905213105 86 332 0.0 2.0 0.00 0.00 0.00 72 1005.3
20260905211555 86 122 0.0 0.0 0.00 0.00 0.00 72 1005.3
20260905210053 84 115 0.0 2.0 0.00 0.00 0.00 76 1005.4
20260905204537 86 152 0.0 1.0 0.00 0.00 0.00 72 1005.6
20260905203020 87 285 0.0 2.0 0.00 0.00 0.00 67 1005.9
20260905201518 88 9 0.0 2.0 0.00 0.00 0.00 67 1005.6
20260905200128 87 296 0.0 0.0 0.00 0.00 0.00 69 1005.6
20260905194601 88 297 0.0 0.0 0.00 0.00 0.00 67 1005.9
20260905193037 90 48 0.0 1.0 0.00 0.00 0.00 62 1006.2
20260905191541 92 356 0.0 3.0 0.00 0.00 0.00 58 1006.5
20260905190019 93 288 0.0 1.0 0.00 0.00 0.00 57 1006.4
20260905184517 95 25 0.0 2.0 0.00 0.00 0.00 54 1006.5
20260905183059 94 325 0.0 2.0 0.00 0.00 0.00 52 1006.7
20260905181558 94 46 0.0 3.0 0.00 0.00 0.00 57 1006.7
20260905180040 92 60 0.0 5.0 0.00 0.00 0.00 54 1006.6
20260905174538 94 66 0.0 3.0 0.00 0.00 0.00 54 1006.7
20260905173017 93 312 0.0 2.0 0.00 0.00 0.00 56 1006.8
20260905171533 92 242 0.0 1.0 0.00 0.00 0.00 55 1006.8
20260905170058 90 82 0.0 3.0 0.00 0.00 0.00 60 1007.3
20260905164553 89 319 0.0 2.0 0.00 0.00 0.00 60 1007.2
20260905163033 87 101 0.0 3.0 0.00 0.00 0.00 62 1007.3